Starlink 4372

operational
NORAD ID: 53233 Int'l Des: 2022-084 Owner: SPXS Country: US Constellation: starlink
LEOCIRCULARRETROGRADESSO

关于 Starlink 4372

正在加载描述...

实时位置

正在加载3D地球...

即将过境

高度历史

Altitude vs Time

uPlot chart will show altitude changes over time

两行轨道根数

1 53233U 22084AW 25352.73201623 .00000109 00000-0 13060-4 0 9997
2 53233 97.6038 50.9405 0002045 148.2468 211.8880 15.01261914187170
Epoch: Dec 18, 2025 • Age: 14 hours

当前状态

高度 572.1 km
速度 7.57 km/s
星下点 -26.01°S, 30.43°E
发射日期 Jul 22, 2022
运行时间 3.4 years
类型 internet

技术详情

分类 Payload
质量 297.00 kg
干质量 275.00 kg
总质量 297.00 kg
长度 0.20 m
直径 2.80 m
跨度 9.00 m
形状 Box + pan
制造商 SPXS
平台类型 Starlink
阶段状态 In Orbit
所有者/国家 SPXS/US

大型星座

Loading constellations...